Overview Statistics Trail Chart Weather Telemetry Raw packets
 

This is the latest recevied weather packets stored in our database for station/object KI6SYE. If no packets are shown the sender has not sent any weather packets the latest 10 day(s).

<< 28 29 30 31 32 33 34 >>
Time Temp. Humidity Pressure Rain* Wind** Luminosity Snow
1788485595 21.67° C 80% 1011.5 hPa 0 mm - 38 W/m² -
1788485291 21.67° C 79% 1011.4 hPa 0 mm - 45 W/m² -
1788484985 21.67° C 78% 1011.4 hPa 0 mm - 50 W/m² -
1788484684 21.67° C 78% 1011.4 hPa 0 mm - 57 W/m² -
1788484379 21.67° C 78% 1011.2 hPa 0 mm - 67 W/m² -
1788484074 21.67° C 78% 1011.2 hPa 0 mm - 78 W/m² -
1788483771 21.67° C 78% 1011.4 hPa 0 mm - 88 W/m² -
1788483471 21.67° C 77% 1011.2 hPa 0 mm - 102 W/m² -
1788483167 21.67° C 77% 1011.3 hPa 0 mm - 111 W/m² -
1788482861 22.22° C 76% 1011.6 hPa 0 mm - 123 W/m² -
1788482558 22.22° C 76% 1011.5 hPa 0 mm - 136 W/m² -
1788482252 22.22° C 77% 1011.6 hPa 0 mm - 150 W/m² -
1788481949 22.22° C 77% 1011.6 hPa 0 mm - 161 W/m² -
1788481644 22.22° C 77% 1011.6 hPa 0 mm - 173 W/m² -
1788481341 22.22° C 77% 1011.7 hPa 0 mm - 188 W/m² -
1788481035 22.22° C 78% 1011.5 hPa 0 mm - 204 W/m² -
1788480733 22.22° C 78% 1011.7 hPa 0 mm - 218 W/m² -
1788480429 22.22° C 78% 1011.6 hPa 0 mm - 233 W/m² -
1788480124 22.22° C 77% 1011.6 hPa 0 mm - 251 W/m² -
1788479823 22.78° C 77% 1011.7 hPa 0 mm - 263 W/m² -
1788479520 22.78° C 77% 1011.9 hPa 0 mm - 278 W/m² -
1788479214 22.78° C 77% 1011.6 hPa 0 mm - 294 W/m² -
1788478910 22.78° C 76% 1011.6 hPa 0 mm - 310 W/m² -
1788478606 22.22° C 78% 1011.8 hPa 0 mm - 323 W/m² -
1788478302 22.78° C 77% 1012 hPa 0 mm - 340 W/m² -

* Rain latest hour (hover to see other rain measurements)
** Current wind speed in m/s (hover to see current wind gust speed)